TimeEDT,TemperatureF,Dew PointF,Humidity,Sea Level PressureIn,VisibilityMPH,Wind Direction,Wind SpeedMPH,Gust SpeedMPH,PrecipitationIn,Events,Conditions,WindDirDegrees,DateUTC
12:52 AM,42.1,30.9,65,29.95,10.0,NW,10.4,-,N/A,,Clear,320,2013-03-13 04:52:00
1:52 AM,42.1,30.0,62,29.95,10.0,NNW,8.1,-,N/A,,Clear,340,2013-03-13 05:52:00
2:52 AM,42.1,28.0,58,29.96,10.0,NW,13.8,-,N/A,,Clear,320,2013-03-13 06:52:00
3:52 AM,39.9,28.9,65,29.96,10.0,NW,8.1,-,N/A,,Clear,320,2013-03-13 07:52:00
4:52 AM,37.9,28.0,68,29.97,10.0,NW,3.5,-,N/A,,Clear,320,2013-03-13 08:52:00
5:13 AM,37.4,28.4,70,29.97,10.0,Calm,Calm,-,N/A,,Clear,0,2013-03-13 09:13:00
5:52 AM,32.0,27.0,82,29.97,10.0,Calm,Calm,-,N/A,,Clear,0,2013-03-13 09:52:00
6:52 AM,30.9,27.0,85,29.98,10.0,SSW,3.5,-,N/A,,Partly Cloudy,210,2013-03-13 10:52:00
7:52 AM,32.0,28.0,85,29.99,8.0,SW,5.8,-,N/A,,Partly Cloudy,220,2013-03-13 11:52:00
8:52 AM,41.0,32.0,70,29.99,10.0,SW,3.5,-,N/A,,Partly Cloudy,230,2013-03-13 12:52:00
9:52 AM,46.0,26.1,46,29.99,10.0,WNW,8.1,-,N/A,,Partly Cloudy,290,2013-03-13 13:52:00
10:52 AM,48.0,26.1,42,29.98,10.0,NW,4.6,-,N/A,,Clear,310,2013-03-13 14:52:00
11:52 AM,50.0,28.0,43,29.96,10.0,WSW,11.5,-,N/A,,Scattered Clouds,240,2013-03-13 15:52:00
12:52 PM,50.0,28.0,43,29.94,10.0,SW,10.4,18.4,N/A,,Scattered Clouds,220,2013-03-13 16:52:00
1:52 PM,52.0,28.0,40,29.91,10.0,SW,8.1,-,N/A,,Mostly Cloudy,220,2013-03-13 17:52:00
2:52 PM,51.1,28.0,41,29.89,10.0,West,15.0,21.9,N/A,,Mostly Cloudy,260,2013-03-13 18:52:00
3:52 PM,50.0,30.0,46,29.91,10.0,NW,17.3,-,N/A,,Scattered Clouds,310,2013-03-13 19:52:00
3:55 PM,50.0,30.2,47,29.90,10.0,NW,17.3,-,N/A,,Scattered Clouds,310,2013-03-13 19:55:00
4:52 PM,50.0,30.0,46,29.90,10.0,NNW,13.8,-,N/A,,Scattered Clouds,330,2013-03-13 20:52:00
5:52 PM,50.0,28.0,43,29.91,10.0,WNW,10.4,-,N/A,,Mostly Cloudy,300,2013-03-13 21:52:00
6:52 PM,48.9,23.0,36,29.93,10.0,WSW,8.1,-,N/A,,Mostly Cloudy,240,2013-03-13 22:52:00
7:52 PM,46.0,23.0,40,29.96,10.0,WNW,21.9,26.5,N/A,,Scattered Clouds,300,2013-03-13 23:52:00
8:52 PM,44.1,23.0,43,30.00,10.0,WNW,19.6,29.9,N/A,,Mostly Cloudy,300,2013-03-14 00:52:00
9:52 PM,42.1,21.0,43,30.02,10.0,WNW,24.2,29.9,N/A,,Mostly Cloudy,300,2013-03-14 01:52:00
10:52 PM,39.9,19.0,43,30.05,10.0,WNW,19.6,25.3,N/A,,Partly Cloudy,300,2013-03-14 02:52:00
11:52 PM,37.9,17.1,43,30.06,10.0,WNW,17.3,-,N/A,,Clear,300,2013-03-14 03:52:00